Temp
82 80 79 77 77 77 77 78 78 77 76 75 74 74 71 69 65 64 65 67 69 74 80 75 76 77 76 76 78 77 77 78 79 77 75 76 75 75 74 72 72 72 72 71 71 71 71 70 70 70 71 71 71 71 71 71 71 71 71 71 71 71 71 71 71 71 71 71 71 71 71 72 72 74
79 80 79 79 77 78 78 77 78 77 76 76 75 74 73 72 68 67 64 66 71 70 76 79 75 76 76 78 78 78 76 77 79 76 75 76 75 74 73 71 71 71 71 70 70 70 70 70 70 70 69 69 70 70 70 70 70 70 70 71 71 71 71 70 70 70 71 71 71 71 71 71 71 71
79 78 78 77 75 77 78 78 79 77 75 76 76 75 75 73 72 70 69 64 70 75 72 75 80 78 76 79 79 79 78 78 78 76 75 75 75 75 74 72 70 69 69 69 69 69 68 69 69 69 68 69 69 69 69 70 70 70 70 70 70 71 71 70 70 70 70 70 70 70 70 70 70 70
78 77 76 76 76 78 78 78 78 76 77 77 76 76 74 73 74 73 70 67 67 73 73 73 75 78 76 76 76 76 77 79 78 75 75 76 76 76 76 75 72 70 69 69 68 68 68 68 68 69 69 69 69 69 69 69 69 69 69 69 69 70 70 69 69 70 70 70 69 69 70 70 70 70
78 77 77 76 77 78 77 77 78 78 77 77 76 75 74 74 74 72 70 67 67 71 74 74 74 76 76 75 76 75 75 75 76 76 75 76 75 75 75 76 74 72 69 68 68 68 68 68 68 68 68 68 69 69 69 69 68 68 68 68 68 68 69 68 68 68 69 69 69 69 69 70 70 70
77 76 76 76 77 78 77 77 77 77 77 76 76 75 75 73 74 74 72 69 68 67 71 71 74 74 77 73 76 73 74 74 75 74 74 76 76 75 75 75 76 74 72 68 67 67 67 67 67 67 68 68 68 68 68 68 67 67 67 67 67 67 66 66 66 67 67 68 68 68 69 69 69 70
77 76 76 77 77 78 77 76 77 78 77 77 77 76 77 75 75 75 74 72 69 68 68 72 72 73 74 73 73 75 75 74 75 73 73 75 76 76 76 75 77 75 72 70 68 67 66 67 67 67 67 67 67 67 66 66 66 66 65 65 66 66 65 65 66 66 67 67 67 68 68 68 68 69
76 76 75 77 78 77 76 76 75 76 77 76 76 75 75 74 74 75 74 73 70 70 68 70 71 73 72 72 75 75 75 74 73 74 74 74 74 75 76 75 75 75 72 71 68 67 67 66 66 66 66 65 65 64 64 64 65 64 64 64 64 64 64 64 64 65 65 65 66 67 67 68 67 67
76 76 76 77 77 77 75 76 76 76 75 76 75 74 75 74 75 75 74 73 72 70 68 69 71 72 72 73 74 74 72 72 73 73 72 73 73 73 75 76 76 74 71 71 71 69 68 68 67 66 66 65 64 64 64 63 63 63 63 63 63 63 63 63 63 63 63 63 64 64 65 66 66 67
77 77 77 78 77 77 76 76 76 76 76 76 75 74 74 75 75 74 74 73 72 71 69 69 69 71 71 71 72 73 72 71 70 70 71 72 72 72 71 74 76 77 77 76 75 71 70 69 67 67 67 66 65 64 64 63 62 62 62 60 60 61 61 62 63 63 62 62 63 64 64 65 65 66
79 78 78 77 78 77 77 77 76 76 76 76 75 75 75 75 74 73 72 72 71 71 70 70 70 69 71 71 69 71 73 72 71 69 68 68 71 71 70 70 73 76 76 74 73 73 73 73 72 67 64 64 64 64 64 63 62 62 61 60 59 59 59 59 60 61 61 62 62 62 61 62 64 65
80 79 80 81 79 78 77 77 77 76 75 75 74 75 75 72 71 71 71 71 71 70 69 68 68 69 68 69 71 72 71 69 68 70 69 66 67 68 70 70 70 72 72 71 74 74 73 72 70 67 67 67 66 65 65 65 65 64 62 61 62 61 60 59 60 60 60 60 59 60 60 60 61 62
79 79 80 81 82 80 80 80 79 79 78 76 74 75 75 74 73 71 71 71 70 69 69 68 69 68 67 68 68 67 67 66 66 69 70 68 68 68 68 69 71 72 71 71 72 72 73 72 72 73 72 72 72 71 69 68 68 66 62 62 62 62 62 60 60 60 60 60 59 59 59 60 61 62
79 80 82 82 83 81 81 81 80 77 75 75 77 74 74 73 72 71 69 69 69 69 67 67 67 66 66 67 68 67 69 69 70 68 68 66 67 67 66 67 69 71 71 70 68 70 73 73 71 71 70 72 73 72 73 74 74 69 65 63 62 62 62 61 61 60 60 60 59 59 58 59 60 60
77 79 79 79 81 79 78 77 76 74 73 73 72 71 71 72 72 70 69 68 69 67 67 67 67 67 66 67 68 68 69 70 68 67 67 66 66 64 62 61 66 71 70 68 67 67 70 70 68 69 70 71 71 72 72 71 70 68 67 67 66 66 65 64 63 62 61 60 59 59 59 59 59 59
77 78 79 80 79 77 77 76 74 74 72 70 70 69 68 68 68 69 69 68 67 67 66 66 66 67 66 66 67 68 69 66 66 67 66 65 64 63 62 62 62 68 71 66 64 64 68 69 68 67 69 70 71 73 70 68 68 67 67 67 66 66 65 65 64 64 63 62 61 61 61 61 61 60
77 76 77 78 77 77 77 77 77 75 74 71 68 68 68 67 66 64 63 64 68 69 67 66 66 67 67 66 67 69 68 68 65 65 64 64 64 63 62 62 64 66 68 66 63 63 66 68 67 67 68 70 71 73 71 68 67 66 66 65 64 64 64 63 63 64 63 63 62 61 61 61 60 60
77 77 75 74 75 75 74 75 75 75 74 74 73 71 69 70 70 66 62 61 61 64 67 67 66 68 69 66 68 69 69 67 65 64 63 64 63 62 62 64 64 67 69 65 64 62 65 68 67 66 69 71 71 70 69 68 66 65 63 63 62 63 63 63 64 64 64 63 62 61 60 59 59 59
78 77 76 75 75 75 74 74 75 74 74 73 73 72 71 71 71 71 72 72 70 68 67 68 68 68 69 69 69 70 70 69 67 66 65 65 64 64 65 65 66 67 68 67 65 60 65 68 66 67 69 70 69 69 68 67 65 65 64 64 64 64 64 64 64 63 62 62 60 60 59 59 59 58
76 76 75 74 74 74 74 73 71 73 73 72 71 70 70 70 70 71 71 69 71 75 72 71 71 72 73 69 70 69 69 67 67 67 68 66 65 63 61 61 65 65 69 69 66 63 64 66 66 67 70 70 68 69 70 68 66 65 65 65 64 64 63 62 62 61 60 60 61 61 60 59 58 57
76 75 75 74 73 73 73 70 64 67 73 70 70 70 69 70 71 71 73 69 65 64 63 62 62 61 61 59 59 58 59 63 65 65 63 62 65 61 60 61 63 64 68 70 70 66 64 65 65 65 67 66 66 68 69 70 68 66 64 62 61 60 60 60 60 60 61 62 62 61 61 59 58 59
75 75 76 75 73 72 72 65 62 63 69 69 69 70 69 70 69 70 74 76 73 64 60 60 60 61 61 60 60 60 59 59 60 62 59 64 65 62 62 61 63 66 67 68 72 64 63 65 65 63 64 64 65 67 68 68 68 67 64 64 63 62 61 61 60 60 61 61 61 60 59 58 58 61
74 73 72 74 72 72 71 61 60 61 67 69 69 69 68 68 67 69 71 70 70 70 70 70 70 68 66 66 66 67 62 60 61 64 64 66 64 62 62 63 63 61 63 68 69 61 61 61 63 62 60 58 62 66 66 67 67 68 68 68 69 65 64 62 60 59 59 59 59 59 58 57 58 61
67 68 69 67 64 64 61 56 56 57 60 68 70 69 68 66 66 66 66 68 68 68 68 68 69 68 69 70 70 71 71 70 68 67 66 66 65 63 63 64 63 61 62 65 69 61 62 63 61 63 61 57 56 61 65 65 66 67 68 67 67 65 65 64 62 60 58 58 58 58 58 57 58 61
66 65 67 68 63 59 57 53 52 52 54 61 66 68 67 65 60 59 66 67 69 67 67 67 67 67 68 68 69 70 70 72 72 72 71 70 69 67 65 63 62 62 64 66 66 62 59 61 60 62 61 61 61 61 63 63 65 65 66 66 65 66 65 65 64 66 62 61 59 57 57 57 57 59
65 66 67 69 66 58 55 52 50 49 51 53 62 60 51 50 54 62 64 65 66 66 66 66 66 66 67 67 68 68 70 72 71 72 71 71 70 69 68 63 60 59 60 65 64 63 61 59 61 60 60 59 60 61 58 60 63 65 66 66 65 65 64 63 63 64 66 67 67 64 65 62 59 57
66 67 69 70 58 53 50 48 48 48 50 54 57 48 50 51 52 59 64 65 65 64 65 64 64 63 65 66 66 66 66 69 67 68 68 68 68 67 67 67 66 64 64 65 67 65 62 61 63 61 59 60 57 58 58 57 60 64 64 65 65 65 65 63 62 63 65 65 66 61 59 59 59 58
70 70 72 63 51 48 44 46 48 50 52 57 47 49 51 53 56 62 63 62 63 63 63 62 63 64 65 65 64 65 66 66 64 65 66 65 67 65 65 66 67 68 66 66 67 66 64 63 63 64 62 59 56 55 55 60 61 62 61 64 65 64 64 62 61 62 63 64 64 64 64 65 66 64
71 60 52 47 47 46 46 47 49 50 51 49 49 50 51 57 62 62 62 63 64 62 62 63 64 64 64 64 64 65 65 65 65 64 65 66 66 66 66 65 65 65 68 69 67 67 66 65 64 64 62 61 57 58 57 56 59 59 61 60 59 60 62 63 63 61 61 62 62 62 63 64 65 66
50 50 50 49 48 49 50 52 54 59 58 52 52 53 54 60 63 64 64 64 63 62 64 64 62 63 64 64 66 65 64 63 62 62 62 62 63 64 62 61 62 64 67 68 68 68 68 67 65 63 62 62 61 59 59 58 57 59 60 58 58 61 62 62 61 61 61 61 62 63 64 64 64 64
57 53 55 56 54 55 54 58 61 63 60 56 55 58 59 61 64 65 64 64 63 63 63 63 63 64 65 67 65 63 62 61 61 63 62 62 62 62 61 59 60 61 64 66 69 69 68 67 66 65 61 61 62 61 61 60 57 57 59 60 60 55 60 61 62 61 62 62 62 62 62 63 64 65
64 63 58 56 61 61 60 61 62 64 63 64 63 64 64 64 65 67 68 68 65 64 65 64 64 64 64 63 63 63 62 62 62 63 62 62 60 62 61 59 58 60 62 64 66 67 70 68 66 65 64 62 59 60 60 59 58 57 58 60 60 61 61 60 61 62 63 61 60 60 62 62 61 64
66 64 63 63 64 64 64 64 63 64 64 64 66 67 68 69 69 67 66 65 64 65 64 63 62 63 63 62 62 62 62 61 61 62 61 61 60 60 60 59 60 60 60 62 63 64 65 66 68 66 64 64 63 61 59 57 58 59 57 58 59 58 60 61 61 61 62 60 59 59 59 61 62 64
66 66 66 66 66 65 65 66 69 72 70 68 69 68 65 68 68 68 67 67 67 67 64 64 63 62 62 61 61 61 61 60 61 61 61 59 60 59 59 59 59 61 61 61 62 63 64 64 64 65 65 65 65 63 60 57 56 57 58 58 58 57 59 61 61 61 61 58 57 57 57 59 61 64
68 67 66 68 69 71 73 72 72 70 69 68 69 69 70 69 68 67 68 64 64 64 65 63 64 63 61 60 61 60 61 61 60 61 61 61 61 60 60 60 60 60 60 61 62 62 63 62 62 62 62 61 61 62 63 60 57 57 57 57 58 58 58 60 60 60 60 59 58 56 57 58 59 63
68 69 69 70 70 71 72 72 71 72 72 70 70 70 69 68 69 68 64 62 65 62 64 63 62 61 61 61 61 61 61 60 60 60 60 60 60 61 61 61 60 60 61 61 61 63 63 62 61 59 56 56 56 55 57 63 62 58 55 55 58 58 58 59 59 59 59 58 58 56 55 54 56 59
69 69 70 71 70 71 71 71 70 69 72 71 70 69 67 66 67 66 63 62 65 64 63 63 62 62 62 62 61 61 61 60 60 60 60 60 60 61 60 60 61 60 60 60 62 63 63 62 60 59 56 54 53 52 55 60 60 60 58 56 56 57 57 57 57 56 58 58 57 56 55 55 55 58
69 69 68 69 70 70 71 71 71 68 68 67 68 67 68 67 68 67 66 64 64 64 64 64 64 63 63 62 61 61 61 61 61 60 61 60 60 59 59 59 59 60 60 61 61 62 63 62 60 59 57 54 52 52 53 57 58 59 59 57 56 56 57 55 54 54 55 58 57 57 56 55 56 58
66 66 67 68 69 69 69 68 66 66 66 66 66 67 67 66 67 65 65 63 64 63 63 62 63 62 61 62 62 61 60 60 60 60 60 61 60 59 59 60 59 60 60 60 61 62 63 62 61 60 58 55 53 53 54 54 55 58 59 55 56 55 55 54 53 54 55 55 56 56 57 58 59 61
66 67 66 67 67 67 66 67 66 67 67 66 67 67 67 66 65 64 63 62 61 61 61 62 61 60 61 62 62 63 62 61 61 61 61 61 61 60 60 60 59 59 59 60 60 61 61 61 61 61 60 58 58 59 59 58 59 59 59 59 54 54 54 54 53 53 53 55 55 53 52 54 53 56
66 65 65 66 66 66 66 66 67 66 67 67 66 65 64 63 63 63 61 61 61 60 60 60 60 60 61 62 63 63 61 60 61 62 62 61 60 60 60 58 59 59 59 59 60 60 61 62 64 62 64 62 60 60 59 56 54 55 56 57 55 55 54 55 54 53 53 55 53 51 50 50 51 53
68 68 67 68 67 67 67 67 67 66 66 66 66 65 64 63 62 61 62 62 61 60 60 60 60 60 62 62 62 61 61 60 60 60 61 61 60 60 60 60 59 60 59 59 59 61 63 65 65 64 63 61 58 56 54 55 54 54 55 57 58 56 56 55 54 55 54 54 52 49 49 50 52 52
68 68 68 67 67 66 66 66 66 66 67 66 65 65 64 65 64 62 62 62 61 61 61 61 62 62 61 61 61 61 61 61 60 60 61 61 61 60 60 60 60 60 60 60 61 62 63 63 63 63 62 60 59 59 55 56 55 55 55 54 55 56 56 57 56 55 56 56 54 52 51 50 48 47
69 68 68 67 67 66 66 65 66 67 65 65 65 65 65 62 62 62 62 61 62 62 63 62 62 62 61 61 61 61 60 60 61 60 60 60 60 61 61 60 60 60 61 61 60 61 62 63 63 63 61 59 60 58 56 57 55 56 55 54 54 53 53 55 55 55 56 56 55 53 54 54 53 53
69 69 69 67 67 67 66 66 66 66 66 65 65 65 64 62 62 62 63 62 62 62 62 63 62 62 61 61 59 59 60 58 59 61 60 61 61 61 61 62 60 60 60 60 59 60 61 62 63 63 61 60 60 58 59 58 56 55 55 54 52 52 52 53 51 50 51 51 53 53 53 54 54 54
MSLP
1016.88 1017.04 1017.16 1017.36 1017.44 1017.44 1017.40 1017.56 1017.60 1017.72 1017.84 1018.16 1018.44 1018.72 1019.40 1019.80 1020.76 1021.20 1021.04 1020.40 1019.96 1018.88 1018.12 1018.56 1017.80 1017.32 1017.44 1017.52 1017.36 1017.48 1017.56 1017.56 1017.60 1017.68 1017.72 1017.72 1017.68 1017.56 1017.52 1017.52 1017.52 1017.48 1017.48 1017.48 1017.52 1017.60 1017.60 1017.60 1017.56 1017.56 1017.52 1017.52 1017.56 1017.56 1017.60 1017.64 1017.64 1017.68 1017.68 1017.68 1017.64 1017.64 1017.64 1017.64 1017.64 1017.60 1017.60 1017.56 1017.48 1017.40 1017.28 1017.20 1017.08 1016.96
1016.88 1016.88 1016.96 1017.04 1017.32 1017.16 1017.36 1017.56 1017.56 1017.60 1017.80 1018.08 1018.32 1018.56 1018.72 1019.08 1020.12 1020.44 1021.04 1020.60 1019.52 1019.24 1018.28 1018.04 1018.24 1017.52 1017.48 1017.28 1017.24 1017.20 1017.36 1017.32 1017.32 1017.40 1017.48 1017.48 1017.40 1017.32 1017.32 1017.32 1017.32 1017.32 1017.28 1017.32 1017.32 1017.32 1017.32 1017.28 1017.24 1017.24 1017.20 1017.20 1017.20 1017.24 1017.24 1017.28 1017.32 1017.32 1017.32 1017.32 1017.28 1017.32 1017.28 1017.28 1017.28 1017.24 1017.24 1017.28 1017.24 1017.20 1017.16 1017.04 1016.96 1016.88
1016.88 1017.00 1017.12 1017.04 1017.20 1017.12 1017.36 1017.40 1017.40 1017.44 1017.60 1017.84 1017.96 1018.12 1018.28 1018.64 1019.00 1019.52 1019.96 1020.76 1019.32 1018.52 1019.04 1018.32 1017.68 1017.72 1017.44 1017.16 1017.08 1017.00 1016.96 1016.96 1017.00 1017.12 1017.20 1017.16 1017.16 1017.12 1017.08 1017.04 1017.04 1017.04 1017.04 1017.04 1017.08 1017.04 1017.00 1017.00 1016.96 1016.92 1016.92 1016.88 1016.88 1016.88 1016.88 1016.92 1016.88 1016.88 1016.88 1016.92 1016.92 1016.92 1016.92 1016.92 1016.92 1016.92 1016.92 1016.92 1016.92 1016.92 1016.88 1016.84 1016.76 1016.68
1016.80 1016.96 1017.12 1017.12 1017.20 1017.16 1017.24 1017.40 1017.40 1017.48 1017.52 1017.64 1017.80 1017.88 1018.08 1018.28 1018.44 1018.76 1019.40 1019.96 1019.92 1018.64 1018.64 1018.32 1017.92 1017.52 1017.44 1017.16 1017.28 1017.08 1016.84 1016.64 1016.68 1016.80 1016.88 1016.88 1016.92 1016.92 1016.84 1016.72 1016.72 1016.72 1016.68 1016.60 1016.60 1016.64 1016.64 1016.68 1016.64 1016.64 1016.68 1016.68 1016.64 1016.60 1016.56 1016.52 1016.48 1016.48 1016.48 1016.52 1016.56 1016.52 1016.52 1016.56 1016.56 1016.56 1016.56 1016.56 1016.56 1016.56 1016.56 1016.52 1016.48 1016.44
1016.52 1016.68 1016.84 1016.88 1016.88 1016.84 1017.20 1017.32 1017.32 1017.44 1017.48 1017.48 1017.56 1017.60 1017.80 1018.16 1018.16 1018.48 1018.96 1019.52 1019.40 1018.56 1017.88 1018.00 1017.92 1017.40 1017.28 1017.36 1017.00 1017.12 1016.96 1016.80 1016.64 1016.56 1016.60 1016.64 1016.72 1016.68 1016.60 1016.48 1016.36 1016.32 1016.28 1016.20 1016.20 1016.24 1016.28 1016.28 1016.28 1016.28 1016.28 1016.28 1016.28 1016.20 1016.08 1016.04 1016.04 1016.04 1016.04 1016.04 1016.08 1016.16 1016.16 1016.12 1016.16 1016.16 1016.16 1016.16 1016.12 1016.12 1016.16 1016.16 1016.12 1016.08
1016.20 1016.44 1016.64 1016.68 1016.68 1016.64 1016.96 1017.08 1017.24 1017.28 1017.40 1017.44 1017.48 1017.48 1017.60 1017.84 1017.96 1017.80 1018.48 1018.84 1019.08 1019.08 1018.12 1018.04 1017.52 1017.48 1017.08 1017.52 1016.84 1017.08 1017.12 1016.92 1016.64 1016.68 1016.56 1016.44 1016.48 1016.52 1016.40 1016.36 1016.16 1016.00 1015.88 1015.88 1015.88 1015.88 1015.92 1015.92 1015.88 1015.84 1015.80 1015.80 1015.80 1015.76 1015.72 1015.64 1015.60 1015.64 1015.64 1015.64 1015.64 1015.64 1015.68 1015.72 1015.72 1015.72 1015.72 1015.72 1015.72 1015.72 1015.72 1015.76 1015.72 1015.72
1015.88 1016.28 1016.44 1016.44 1016.40 1016.40 1016.76 1016.84 1016.92 1016.92 1017.08 1017.08 1017.28 1017.40 1017.36 1017.64 1017.68 1017.68 1017.80 1018.36 1018.84 1018.88 1018.56 1017.84 1017.88 1017.60 1017.32 1017.40 1017.16 1016.80 1016.68 1016.56 1016.44 1016.52 1016.44 1016.40 1016.28 1016.16 1016.12 1016.12 1015.88 1015.68 1015.60 1015.56 1015.52 1015.48 1015.48 1015.44 1015.44 1015.44 1015.40 1015.40 1015.40 1015.36 1015.36 1015.32 1015.24 1015.24 1015.28 1015.28 1015.24 1015.20 1015.20 1015.24 1015.28 1015.28 1015.28 1015.28 1015.24 1015.24 1015.24 1015.28 1015.32 1015.32
1015.72 1015.96 1016.20 1016.16 1016.08 1016.12 1016.48 1016.56 1016.64 1016.68 1016.76 1016.96 1017.12 1017.28 1017.28 1017.36 1017.52 1017.48 1017.56 1017.76 1018.24 1018.40 1018.64 1017.96 1017.88 1017.48 1017.56 1017.20 1016.76 1016.56 1016.44 1016.44 1016.40 1016.24 1016.08 1015.92 1016.00 1015.88 1015.80 1015.80 1015.72 1015.52 1015.36 1015.28 1015.28 1015.24 1015.20 1015.12 1015.04 1014.96 1014.96 1015.00 1015.00 1015.00 1014.96 1014.92 1014.88 1014.88 1014.84 1014.84 1014.84 1014.80 1014.76 1014.76 1014.76 1014.76 1014.80 1014.84 1014.84 1014.80 1014.80 1014.84 1014.88 1014.92
1015.52 1015.68 1015.84 1015.76 1015.72 1015.84 1016.24 1016.36 1016.48 1016.52 1016.68 1016.72 1016.84 1017.08 1017.08 1017.16 1017.16 1017.24 1017.36 1017.52 1017.64 1018.04 1018.32 1018.04 1017.44 1017.20 1017.16 1016.92 1016.72 1016.52 1016.80 1016.56 1016.28 1016.00 1016.00 1015.92 1015.80 1015.68 1015.48 1015.40 1015.28 1015.16 1015.04 1014.92 1014.80 1014.76 1014.72 1014.64 1014.56 1014.52 1014.52 1014.56 1014.56 1014.56 1014.52 1014.48 1014.48 1014.44 1014.40 1014.36 1014.36 1014.36 1014.32 1014.28 1014.28 1014.32 1014.36 1014.40 1014.40 1014.36 1014.36 1014.36 1014.40 1014.44
1015.12 1015.28 1015.44 1015.40 1015.40 1015.60 1015.96 1016.16 1016.20 1016.24 1016.40 1016.44 1016.64 1016.80 1016.84 1016.88 1016.92 1017.08 1017.20 1017.28 1017.52 1017.72 1017.80 1017.76 1017.64 1017.20 1017.24 1017.04 1016.84 1016.48 1016.44 1016.60 1016.52 1016.24 1015.88 1015.64 1015.48 1015.52 1015.52 1015.32 1015.04 1014.84 1014.72 1014.64 1014.48 1014.36 1014.28 1014.12 1014.08 1014.08 1014.08 1014.08 1014.08 1014.08 1014.04 1014.04 1014.00 1013.96 1013.96 1013.88 1013.84 1013.88 1013.88 1013.84 1013.80 1013.84 1013.88 1013.88 1013.88 1013.88 1013.84 1013.84 1013.88 1013.92
1014.80 1014.88 1015.00 1015.08 1015.08 1015.28 1015.48 1015.72 1015.88 1015.96 1016.12 1016.28 1016.40 1016.40 1016.48 1016.56 1016.88 1017.16 1017.28 1017.24 1017.32 1017.40 1017.48 1017.36 1017.24 1017.20 1016.80 1016.80 1017.00 1016.36 1016.04 1016.04 1016.08 1016.28 1016.20 1016.12 1015.52 1015.32 1015.36 1015.36 1014.96 1014.68 1014.56 1014.32 1014.20 1014.12 1013.96 1013.80 1013.68 1013.60 1013.60 1013.60 1013.60 1013.56 1013.52 1013.48 1013.44 1013.40 1013.36 1013.36 1013.40 1013.40 1013.40 1013.36 1013.32 1013.28 1013.32 1013.32 1013.36 1013.40 1013.36 1013.36 1013.32 1013.36
1014.48 1014.52 1014.64 1014.68 1014.72 1014.84 1015.00 1015.20 1015.36 1015.48 1015.80 1015.84 1016.08 1016.00 1016.12 1016.36 1016.64 1016.96 1017.00 1017.00 1017.04 1017.16 1017.24 1017.28 1017.24 1016.96 1016.92 1016.68 1016.40 1016.12 1016.08 1016.24 1016.08 1015.80 1015.92 1016.24 1015.96 1015.56 1015.12 1014.96 1015.00 1014.64 1014.52 1014.52 1014.20 1013.84 1013.60 1013.40 1013.24 1013.12 1013.12 1013.16 1013.20 1013.16 1013.04 1012.92 1012.88 1012.84 1012.84 1012.84 1012.84 1012.80 1012.76 1012.76 1012.72 1012.72 1012.76 1012.84 1012.92 1012.96 1012.96 1012.92 1012.84 1012.80
1014.12 1014.08 1014.08 1014.12 1014.16 1014.20 1014.36 1014.48 1014.68 1014.84 1015.00 1015.40 1015.80 1015.76 1015.76 1016.08 1016.36 1016.52 1016.64 1016.76 1016.84 1016.88 1017.00 1017.04 1016.76 1016.84 1016.80 1016.64 1016.64 1016.64 1016.56 1016.52 1016.40 1015.84 1015.60 1015.72 1015.48 1015.28 1015.20 1014.84 1014.48 1014.40 1014.48 1014.20 1014.00 1013.80 1013.44 1013.32 1013.16 1013.00 1012.96 1012.84 1012.68 1012.52 1012.44 1012.36 1012.36 1012.32 1012.36 1012.32 1012.32 1012.32 1012.36 1012.36 1012.40 1012.40 1012.36 1012.32 1012.36 1012.40 1012.36 1012.32 1012.28 1012.20
1013.88 1013.76 1013.68 1013.56 1013.60 1013.76 1013.92 1014.08 1014.24 1014.40 1014.64 1014.80 1015.00 1015.28 1015.52 1015.80 1016.08 1016.32 1016.48 1016.56 1016.60 1016.72 1016.88 1016.84 1016.76 1016.88 1016.76 1016.56 1016.44 1016.44 1016.20 1015.92 1015.68 1015.76 1015.72 1015.92 1015.52 1015.28 1015.20 1014.84 1014.44 1014.04 1014.08 1014.12 1014.12 1013.72 1013.24 1013.16 1013.00 1012.92 1012.92 1012.56 1012.40 1012.28 1012.20 1012.12 1011.96 1011.88 1011.88 1011.92 1011.92 1011.92 1011.84 1011.80 1011.76 1011.76 1011.76 1011.68 1011.64 1011.64 1011.60 1011.60 1011.56 1011.52
1013.68 1013.56 1013.44 1013.36 1013.32 1013.52 1013.68 1013.88 1014.08 1014.32 1014.52 1014.68 1014.84 1014.92 1015.04 1015.20 1015.56 1016.00 1016.24 1016.24 1016.24 1016.44 1016.56 1016.44 1016.52 1016.52 1016.44 1016.24 1016.04 1016.08 1015.88 1015.76 1015.88 1015.92 1015.76 1015.72 1015.52 1015.56 1015.56 1015.48 1014.52 1013.84 1013.92 1014.08 1014.04 1013.76 1013.28 1013.16 1013.20 1012.96 1012.80 1012.44 1012.20 1012.08 1011.92 1011.72 1011.64 1011.56 1011.48 1011.36 1011.32 1011.28 1011.20 1011.20 1011.20 1011.16 1011.20 1011.16 1011.08 1010.96 1010.92 1010.88 1010.88 1010.84
1013.28 1013.32 1013.24 1013.16 1013.12 1013.28 1013.40 1013.68 1014.04 1014.24 1014.36 1014.44 1014.56 1014.68 1014.80 1015.00 1015.16 1015.28 1015.60 1015.88 1016.08 1016.12 1016.32 1016.32 1016.16 1016.08 1016.04 1015.92 1015.80 1015.76 1015.76 1015.92 1015.88 1015.76 1015.64 1015.60 1015.56 1015.44 1015.36 1015.12 1015.08 1014.12 1013.92 1014.28 1014.28 1013.72 1013.24 1013.04 1012.92 1012.72 1012.40 1012.04 1011.84 1011.60 1011.44 1011.32 1011.20 1011.12 1011.00 1010.92 1010.80 1010.80 1010.80 1010.76 1010.76 1010.72 1010.72 1010.68 1010.60 1010.48 1010.36 1010.28 1010.20 1010.20
1012.88 1013.04 1013.16 1013.08 1013.04 1013.08 1013.16 1013.44 1013.68 1013.92 1014.16 1014.24 1014.32 1014.44 1014.60 1014.72 1014.80 1014.96 1015.08 1015.16 1015.32 1015.44 1015.80 1015.88 1015.80 1015.68 1015.56 1015.68 1015.56 1015.40 1015.48 1015.44 1015.72 1015.56 1015.60 1015.44 1015.32 1015.24 1015.16 1014.84 1014.52 1014.16 1014.04 1014.24 1014.16 1013.64 1012.88 1012.80 1012.60 1012.40 1011.84 1011.60 1011.32 1011.08 1010.84 1010.72 1010.64 1010.56 1010.48 1010.48 1010.52 1010.48 1010.44 1010.40 1010.32 1010.24 1010.16 1010.12 1010.04 1009.96 1009.84 1009.72 1009.68 1009.60
1012.32 1012.48 1012.84 1013.20 1013.24 1013.12 1013.24 1013.32 1013.48 1013.64 1013.88 1014.12 1014.24 1014.40 1014.52 1014.56 1014.52 1014.60 1014.64 1014.80 1014.96 1015.04 1015.20 1015.28 1015.44 1015.00 1015.00 1015.24 1015.08 1014.92 1014.96 1015.24 1015.40 1015.40 1015.40 1015.24 1015.20 1015.08 1014.84 1014.28 1014.12 1013.76 1013.72 1014.04 1013.72 1013.16 1012.56 1012.32 1012.12 1011.92 1011.40 1011.04 1010.76 1010.56 1010.36 1010.24 1010.20 1010.20 1010.24 1010.24 1010.16 1010.08 1010.00 1009.92 1009.80 1009.64 1009.48 1009.32 1009.24 1009.20 1009.16 1009.08 1009.04 1008.96
1011.96 1012.16 1012.40 1012.68 1012.92 1013.04 1013.16 1013.16 1013.24 1013.48 1013.72 1013.96 1014.16 1014.36 1014.48 1014.40 1014.36 1014.28 1014.24 1014.24 1014.32 1014.48 1014.60 1014.72 1014.64 1014.56 1014.48 1014.48 1014.48 1014.52 1014.52 1014.68 1014.76 1014.80 1014.84 1014.76 1014.60 1014.28 1013.88 1013.72 1013.56 1013.40 1013.16 1013.12 1013.28 1013.08 1012.04 1011.68 1011.68 1011.36 1011.00 1010.64 1010.48 1010.28 1010.12 1010.04 1009.96 1009.88 1009.80 1009.76 1009.68 1009.60 1009.48 1009.32 1009.12 1008.96 1008.80 1008.68 1008.60 1008.60 1008.56 1008.44 1008.28 1008.20
1011.68 1011.84 1012.08 1012.40 1012.64 1012.88 1013.12 1013.24 1013.36 1013.40 1013.48 1013.76 1014.00 1014.24 1014.24 1014.28 1014.20 1014.08 1013.76 1013.72 1013.64 1013.64 1013.72 1013.88 1013.96 1013.92 1013.96 1014.00 1014.12 1014.12 1014.24 1014.32 1014.32 1014.28 1014.16 1014.16 1014.04 1014.00 1014.00 1013.96 1013.40 1013.32 1012.68 1012.52 1012.72 1012.44 1011.84 1011.40 1011.44 1011.12 1010.64 1010.44 1010.40 1010.08 1009.96 1009.80 1009.68 1009.56 1009.44 1009.32 1009.24 1009.08 1008.92 1008.76 1008.56 1008.40 1008.28 1008.24 1008.08 1007.88 1007.68 1007.52 1007.40 1007.28
1011.52 1011.68 1011.72 1012.00 1012.36 1012.72 1013.04 1013.20 1013.32 1013.32 1013.40 1013.68 1013.88 1013.96 1014.08 1014.04 1014.04 1013.92 1013.52 1013.32 1013.36 1013.36 1013.36 1013.44 1013.56 1013.68 1013.72 1013.80 1013.92 1014.04 1014.08 1014.12 1014.04 1014.16 1014.44 1014.40 1013.92 1013.96 1013.92 1013.56 1013.36 1013.08 1012.72 1012.28 1012.12 1011.96 1011.68 1011.28 1011.20 1010.96 1010.60 1010.48 1010.36 1010.12 1009.88 1009.56 1009.32 1009.12 1009.00 1008.92 1008.84 1008.72 1008.52 1008.24 1008.04 1007.88 1007.68 1007.44 1007.24 1006.96 1006.76 1006.60 1006.48 1006.32
1011.16 1011.20 1011.32 1011.60 1012.08 1012.48 1012.84 1013.00 1013.20 1013.28 1013.36 1013.60 1013.64 1013.76 1013.88 1013.96 1014.00 1013.88 1013.52 1013.32 1013.20 1013.20 1013.32 1013.44 1013.48 1013.52 1013.68 1013.76 1013.76 1013.80 1013.80 1013.72 1013.76 1014.24 1014.40 1013.60 1013.48 1013.72 1013.60 1013.52 1013.24 1012.80 1012.56 1012.16 1011.60 1011.76 1011.64 1011.24 1011.16 1011.16 1010.64 1010.48 1010.20 1009.96 1009.60 1009.28 1009.04 1008.80 1008.68 1008.52 1008.40 1008.16 1007.92 1007.64 1007.44 1007.24 1007.00 1006.72 1006.40 1006.12 1005.84 1005.64 1005.56 1005.40
1011.00 1011.12 1011.20 1011.44 1011.80 1012.36 1012.88 1013.32 1013.20 1013.24 1013.32 1013.44 1013.52 1013.64 1013.84 1014.04 1014.16 1013.88 1013.64 1013.64 1013.64 1013.60 1013.60 1013.56 1013.52 1013.56 1013.52 1013.56 1013.60 1013.52 1013.40 1013.32 1013.20 1013.40 1013.28 1012.96 1013.32 1013.52 1013.44 1013.28 1013.04 1013.00 1012.48 1011.72 1011.36 1012.04 1011.68 1011.72 1011.40 1011.48 1011.04 1010.60 1009.88 1009.76 1009.40 1009.16 1008.84 1008.64 1008.40 1008.16 1007.92 1007.68 1007.36 1007.04 1006.84 1006.60 1006.28 1005.88 1005.48 1005.12 1004.80 1004.56 1004.52 1004.40
1012.16 1012.08 1012.00 1011.92 1012.20 1012.72 1012.92 1012.92 1013.00 1013.12 1013.16 1013.24 1013.32 1013.44 1013.80 1014.04 1014.04 1013.88 1013.88 1013.72 1013.68 1013.68 1013.68 1013.64 1013.56 1013.56 1013.40 1013.32 1013.24 1013.08 1012.84 1012.68 1012.68 1012.64 1012.60 1012.76 1013.00 1013.20 1013.12 1012.96 1012.80 1012.72 1012.32 1011.76 1011.68 1012.16 1011.76 1011.76 1011.48 1011.36 1011.44 1011.24 1010.16 1009.44 1009.24 1008.92 1008.60 1008.28 1008.16 1007.92 1007.60 1007.08 1006.72 1006.44 1006.12 1005.76 1005.36 1004.96 1004.52 1004.12 1003.72 1003.44 1003.40 1003.36
1012.72 1012.68 1012.40 1012.08 1012.36 1012.52 1012.64 1012.88 1013.00 1013.12 1013.28 1013.40 1013.40 1013.52 1013.68 1013.84 1014.04 1014.08 1013.88 1013.76 1013.60 1013.68 1013.64 1013.60 1013.52 1013.44 1013.28 1013.12 1012.96 1012.80 1012.52 1012.32 1012.16 1012.24 1012.32 1012.40 1012.44 1012.64 1012.76 1012.84 1012.84 1012.68 1012.20 1011.80 1011.80 1012.08 1012.00 1011.68 1011.40 1011.08 1010.84 1010.76 1010.04 1009.44 1008.80 1008.76 1008.20 1007.96 1007.76 1007.52 1007.16 1006.68 1006.32 1005.88 1005.44 1004.92 1004.40 1003.92 1003.52 1003.16 1002.80 1002.44 1002.20 1002.24
1012.48 1012.40 1012.24 1012.08 1011.68 1012.00 1012.56 1012.88 1013.08 1013.32 1013.48 1013.60 1013.56 1013.72 1013.92 1014.08 1014.08 1014.04 1013.96 1013.80 1013.72 1013.60 1013.56 1013.48 1013.48 1013.36 1013.24 1013.20 1013.08 1012.88 1012.68 1012.40 1012.28 1012.28 1012.32 1012.32 1012.36 1012.40 1012.52 1012.72 1012.88 1012.80 1012.24 1011.64 1011.68 1011.80 1011.76 1011.40 1011.12 1010.92 1010.56 1010.48 1009.72 1009.52 1008.92 1008.20 1007.80 1007.36 1007.08 1006.88 1006.68 1006.36 1005.96 1005.36 1004.80 1004.20 1003.68 1003.12 1002.64 1002.28 1001.88 1001.48 1001.20 1000.96
1012.08 1012.00 1011.80 1011.40 1011.60 1012.08 1012.64 1013.04 1013.36 1013.52 1013.72 1013.84 1013.80 1013.88 1013.96 1014.08 1014.08 1014.00 1013.84 1013.68 1013.64 1013.64 1013.60 1013.64 1013.60 1013.48 1013.32 1013.20 1013.04 1012.88 1012.76 1012.56 1012.44 1012.52 1012.52 1012.52 1012.48 1012.48 1012.40 1012.28 1012.24 1012.12 1011.72 1011.40 1011.24 1011.20 1011.24 1010.96 1010.52 1010.56 1010.32 1010.00 1009.84 1009.24 1009.12 1008.48 1007.20 1006.56 1006.44 1006.24 1005.92 1005.68 1005.24 1004.80 1004.24 1003.60 1003.12 1002.68 1002.16 1001.68 1001.28 1000.80 1000.44 1000.16
1011.00 1011.04 1011.08 1011.48 1011.92 1012.40 1012.96 1013.28 1013.52 1013.68 1013.84 1013.76 1013.76 1013.76 1013.76 1013.80 1013.84 1013.72 1013.60 1013.56 1013.56 1013.56 1013.56 1013.60 1013.52 1013.36 1013.08 1012.96 1012.92 1012.88 1012.72 1012.68 1012.72 1012.72 1012.60 1012.48 1012.36 1012.28 1012.12 1011.92 1011.68 1011.44 1011.24 1011.08 1010.84 1010.72 1010.60 1010.44 1010.04 1009.76 1009.76 1009.72 1009.64 1009.32 1008.76 1008.04 1007.72 1007.12 1006.36 1005.48 1005.40 1005.08 1004.60 1004.32 1003.88 1003.28 1002.72 1002.32 1001.88 1001.32 1000.92 1000.28 999.72 999.44
1010.84 1011.00 1011.32 1011.84 1012.40 1012.80 1013.12 1013.36 1013.80 1014.04 1013.88 1013.72 1013.48 1013.48 1013.56 1013.64 1013.44 1013.40 1013.44 1013.36 1013.32 1013.44 1013.48 1013.32 1013.16 1013.16 1013.04 1012.92 1012.80 1012.60 1012.60 1012.60 1012.56 1012.56 1012.40 1012.20 1012.04 1011.88 1011.68 1011.48 1011.28 1011.12 1011.00 1010.72 1010.52 1010.24 1010.04 1009.80 1009.52 1009.28 1009.28 1009.20 1009.40 1009.00 1008.68 1008.04 1007.44 1006.84 1006.36 1005.76 1005.04 1004.68 1004.36 1003.84 1003.52 1003.08 1002.40 1001.84 1001.40 1000.88 1000.40 999.92 999.40 999.00
1011.56 1011.72 1012.08 1012.44 1012.88 1013.08 1013.20 1013.56 1013.60 1013.48 1013.24 1013.28 1013.24 1013.36 1013.52 1013.40 1013.16 1013.08 1013.08 1013.08 1013.16 1013.24 1013.04 1012.88 1012.96 1012.84 1012.68 1012.52 1012.36 1012.40 1012.48 1012.60 1012.64 1012.48 1012.32 1012.16 1011.96 1011.76 1011.60 1011.48 1011.16 1010.92 1010.68 1010.36 1010.00 1009.68 1009.36 1009.12 1008.92 1008.88 1008.88 1008.68 1008.60 1008.44 1008.04 1007.72 1007.20 1006.60 1006.04 1005.80 1005.08 1004.16 1003.96 1003.64 1003.20 1002.76 1002.20 1001.44 1000.80 1000.28 999.64 999.24 998.84 998.52
1011.96 1012.16 1012.16 1012.28 1012.40 1012.60 1012.88 1012.92 1012.64 1012.60 1012.76 1013.04 1013.44 1013.36 1013.28 1013.00 1012.76 1012.60 1012.56 1012.60 1012.76 1012.68 1012.64 1012.64 1012.56 1012.40 1012.28 1012.16 1012.24 1012.40 1012.48 1012.52 1012.36 1012.20 1012.12 1012.00 1011.76 1011.60 1011.44 1011.40 1011.08 1010.68 1010.24 1009.84 1009.44 1009.12 1008.88 1008.64 1008.44 1008.44 1008.56 1008.32 1008.12 1007.92 1007.52 1007.32 1007.12 1006.48 1005.72 1005.32 1004.96 1004.64 1003.28 1003.12 1002.80 1002.28 1001.68 1000.96 1000.20 999.60 999.04 998.56 998.04 997.56
1011.68 1011.96 1012.32 1012.52 1012.56 1012.72 1012.84 1012.76 1012.64 1012.60 1012.64 1012.60 1012.56 1012.52 1012.40 1012.36 1012.28 1012.08 1012.00 1012.08 1012.16 1012.16 1012.12 1012.12 1012.04 1012.12 1012.20 1012.40 1012.32 1012.28 1012.36 1012.32 1012.16 1012.00 1011.92 1011.80 1011.64 1011.44 1011.32 1011.24 1010.92 1010.48 1009.96 1009.48 1009.08 1008.72 1008.48 1008.28 1008.12 1007.96 1007.96 1007.92 1007.84 1007.32 1007.08 1007.00 1006.72 1006.12 1005.56 1005.00 1004.52 1003.88 1003.32 1002.84 1002.16 1001.56 1001.08 1000.60 999.92 999.20 998.52 998.04 997.52 996.84
1011.64 1011.96 1012.20 1012.32 1012.28 1012.32 1012.32 1012.32 1012.28 1012.28 1012.40 1012.20 1011.92 1011.76 1011.72 1011.56 1011.56 1011.76 1011.92 1012.00 1011.92 1011.80 1011.92 1012.04 1012.16 1012.24 1012.24 1012.24 1012.20 1012.24 1012.28 1012.20 1012.04 1011.80 1011.72 1011.56 1011.48 1011.20 1011.08 1011.04 1010.64 1010.28 1009.92 1009.44 1009.04 1008.64 1008.32 1008.04 1007.76 1007.60 1007.48 1007.32 1007.20 1007.08 1007.04 1006.76 1006.12 1005.72 1005.44 1004.80 1004.36 1003.76 1003.08 1002.48 1002.08 1001.40 1000.76 1000.32 999.76 999.04 998.12 997.32 996.92 996.36
1011.52 1011.68 1011.76 1011.76 1011.76 1011.84 1011.92 1011.80 1011.36 1011.04 1011.16 1011.32 1011.28 1011.24 1011.24 1011.28 1011.40 1011.44 1011.44 1011.44 1011.52 1011.56 1011.80 1012.00 1012.08 1012.16 1012.16 1012.24 1012.20 1012.16 1012.20 1012.04 1011.84 1011.60 1011.56 1011.40 1011.16 1011.12 1010.92 1010.68 1010.32 1009.92 1009.68 1009.40 1009.04 1008.68 1008.24 1007.88 1007.56 1007.28 1007.04 1006.80 1006.56 1006.56 1006.64 1006.64 1005.96 1005.56 1005.20 1004.80 1004.36 1003.72 1002.88 1002.36 1001.72 1001.32 1000.92 1000.56 999.88 998.92 998.00 997.04 996.20 995.56
1011.16 1011.32 1011.36 1011.16 1010.92 1010.76 1010.56 1010.60 1010.72 1010.72 1010.88 1010.92 1010.92 1010.88 1010.88 1011.04 1011.12 1011.12 1011.32 1011.72 1011.76 1011.84 1011.96 1011.96 1012.04 1012.08 1012.12 1012.12 1012.04 1012.12 1012.04 1011.88 1011.68 1011.48 1011.28 1011.12 1010.96 1010.84 1010.60 1010.40 1010.08 1009.84 1009.60 1009.36 1009.04 1008.60 1008.24 1007.84 1007.56 1007.36 1007.04 1006.76 1006.52 1006.04 1005.84 1005.92 1005.72 1005.24 1004.96 1004.64 1004.16 1003.56 1002.80 1002.20 1001.76 1001.12 1000.64 1000.00 999.60 999.04 998.04 997.16 995.92 994.96
1010.84 1010.60 1010.64 1010.56 1010.52 1010.44 1010.56 1010.44 1010.28 1010.40 1010.52 1010.52 1010.64 1010.68 1010.88 1011.04 1011.04 1011.16 1011.60 1011.60 1011.68 1011.84 1011.84 1011.96 1012.04 1012.08 1012.04 1012.00 1011.96 1011.88 1011.72 1011.64 1011.56 1011.40 1011.24 1011.04 1010.84 1010.60 1010.36 1010.16 1009.96 1009.76 1009.56 1009.32 1008.96 1008.48 1008.12 1007.76 1007.52 1007.52 1007.48 1007.24 1007.00 1006.44 1005.68 1005.24 1005.32 1005.28 1005.08 1004.48 1003.92 1003.44 1002.80 1002.24 1001.72 1001.20 1000.52 999.80 999.28 998.92 998.36 997.52 996.20 994.88
1010.52 1010.56 1010.56 1010.56 1010.44 1010.44 1010.40 1010.24 1010.36 1010.40 1010.40 1010.44 1010.52 1010.76 1011.00 1011.16 1011.16 1011.24 1011.48 1011.40 1011.64 1011.68 1011.72 1011.76 1011.84 1011.84 1011.84 1011.80 1011.72 1011.64 1011.60 1011.60 1011.56 1011.32 1011.12 1010.84 1010.68 1010.48 1010.32 1010.12 1009.96 1009.72 1009.48 1009.16 1008.84 1008.36 1007.92 1007.60 1007.36 1007.40 1007.48 1007.36 1007.20 1006.96 1005.88 1005.00 1004.76 1004.72 1004.72 1004.40 1003.80 1003.36 1002.84 1002.20 1001.60 1000.88 1000.28 999.80 998.96 998.64 998.28 997.56 996.36 995.00
1010.48 1010.44 1010.56 1010.52 1010.44 1010.24 1010.12 1010.12 1010.32 1010.48 1010.56 1010.68 1010.80 1010.92 1011.04 1011.12 1011.12 1011.12 1011.32 1011.52 1011.48 1011.44 1011.44 1011.56 1011.84 1011.80 1011.76 1011.76 1011.80 1011.76 1011.64 1011.44 1011.28 1011.12 1010.96 1010.80 1010.64 1010.48 1010.32 1010.20 1009.92 1009.64 1009.40 1009.00 1008.60 1008.16 1007.68 1007.44 1007.36 1007.28 1007.36 1007.48 1007.36 1006.92 1006.16 1004.96 1004.72 1004.12 1004.04 1004.20 1004.00 1003.44 1002.96 1002.40 1001.68 1000.92 999.88 999.24 999.00 998.24 997.72 997.00 995.96 994.92
1010.56 1010.60 1010.56 1010.52 1010.40 1010.32 1010.40 1010.60 1010.72 1010.76 1010.76 1010.84 1010.96 1011.04 1011.08 1011.12 1011.12 1011.24 1011.48 1011.76 1011.64 1011.44 1011.56 1011.80 1011.84 1011.88 1011.96 1011.92 1011.80 1011.64 1011.48 1011.36 1011.24 1011.08 1010.92 1010.72 1010.52 1010.44 1010.32 1010.08 1009.84 1009.48 1009.16 1008.80 1008.36 1008.00 1007.68 1007.44 1007.32 1007.28 1007.20 1007.24 1007.16 1006.84 1006.40 1005.96 1005.20 1004.40 1003.92 1003.88 1003.92 1003.68 1003.08 1002.60 1001.84 1000.92 1000.16 999.12 998.20 997.72 997.24 996.56 995.52 994.56
1010.60 1010.56 1010.56 1010.52 1010.52 1010.48 1010.52 1010.60 1010.68 1010.80 1010.88 1010.92 1011.00 1010.92 1010.96 1011.20 1011.36 1011.52 1011.60 1011.72 1011.84 1011.96 1012.00 1012.12 1012.08 1012.08 1012.00 1011.80 1011.60 1011.40 1011.28 1011.20 1011.12 1011.00 1010.84 1010.64 1010.48 1010.36 1010.20 1009.92 1009.72 1009.36 1009.04 1008.72 1008.40 1008.04 1007.76 1007.48 1007.28 1007.08 1006.96 1006.68 1006.52 1006.56 1006.16 1005.56 1005.04 1004.60 1004.20 1003.72 1003.60 1003.60 1003.24 1002.60 1001.96 1001.20 1000.24 999.56 998.88 998.12 997.08 995.92 995.24 994.20
1010.44 1010.48 1010.48 1010.44 1010.48 1010.56 1010.68 1010.76 1010.76 1010.72 1010.84 1010.88 1010.92 1011.04 1011.28 1011.44 1011.56 1011.68 1011.80 1011.88 1011.88 1011.92 1012.12 1012.16 1012.12 1012.04 1011.88 1011.64 1011.44 1011.36 1011.36 1011.24 1011.08 1010.96 1010.76 1010.60 1010.48 1010.28 1010.04 1009.76 1009.56 1009.20 1009.04 1008.72 1008.40 1008.04 1007.72 1007.36 1006.92 1006.60 1006.44 1006.28 1006.44 1006.12 1005.68 1005.40 1005.16 1004.68 1004.16 1003.56 1003.12 1003.00 1002.76 1002.40 1001.96 1001.36 1000.68 999.76 999.32 998.84 998.00 997.16 996.20 995.08
1010.08 1010.20 1010.24 1010.28 1010.48 1010.56 1010.60 1010.68 1010.72 1010.80 1010.92 1010.96 1011.04 1011.16 1011.16 1011.12 1011.32 1011.56 1011.68 1011.80 1011.88 1011.96 1012.08 1012.08 1012.00 1011.84 1011.60 1011.40 1011.40 1011.36 1011.36 1011.28 1011.16 1010.92 1010.80 1010.68 1010.44 1010.12 1009.88 1009.64 1009.44 1009.16 1008.96 1008.72 1008.36 1007.96 1007.44 1007.04 1006.72 1006.52 1006.32 1006.20 1006.08 1006.04 1005.88 1005.64 1005.44 1004.96 1004.40 1003.84 1003.20 1002.72 1002.44 1002.00 1001.56 1001.12 1000.68 1000.12 999.72 999.12 998.04 996.76 995.96 995.32
1009.84 1009.96 1010.12 1010.20 1010.36 1010.52 1010.64 1010.72 1010.80 1010.88 1010.96 1011.00 1011.12 1011.16 1011.20 1011.16 1011.16 1011.36 1011.68 1011.76 1011.68 1011.68 1011.68 1011.64 1011.52 1011.44 1011.48 1011.48 1011.40 1011.36 1011.36 1011.28 1011.12 1011.00 1010.84 1010.56 1010.28 1010.08 1009.88 1009.60 1009.36 1009.08 1008.84 1008.52 1008.12 1007.76 1007.40 1007.00 1006.68 1006.40 1006.20 1006.16 1006.00 1005.88 1005.88 1005.56 1005.40 1005.16 1004.68 1004.20 1003.64 1003.04 1002.36 1001.84 1001.44 1000.92 1000.40 999.92 999.72 999.44 999.24 998.80 997.88 996.72
1009.64 1009.80 1009.96 1010.08 1010.32 1010.52 1010.64 1010.68 1010.72 1010.76 1010.84 1011.00 1011.04 1011.08 1011.12 1011.32 1011.40 1011.52 1011.68 1011.64 1011.52 1011.44 1011.36 1011.40 1011.44 1011.48 1011.48 1011.44 1011.44 1011.44 1011.40 1011.32 1011.16 1011.00 1010.68 1010.44 1010.20 1010.00 1009.80 1009.48 1009.24 1008.96 1008.72 1008.40 1008.12 1007.80 1007.40 1007.00 1006.64 1006.40 1006.32 1006.28 1005.96 1005.96 1005.92 1005.56 1005.44 1005.28 1005.04 1004.64 1004.00 1003.44 1002.76 1001.84 1001.20 1000.60 1000.04 999.68 999.44 999.16 998.80 998.44 998.16 997.76
1009.36 1009.56 1009.80 1010.00 1010.16 1010.28 1010.40 1010.48 1010.56 1010.64 1010.80 1010.88 1011.00 1011.00 1010.80 1010.88 1011.32 1011.60 1011.56 1011.56 1011.48 1011.36 1011.32 1011.32 1011.40 1011.44 1011.44 1011.48 1011.60 1011.60 1011.44 1011.24 1010.96 1010.72 1010.52 1010.36 1010.16 1009.92 1009.68 1009.48 1009.24 1008.96 1008.68 1008.40 1008.24 1007.88 1007.44 1007.04 1006.56 1006.32 1006.28 1006.20 1006.00 1006.00 1005.72 1005.56 1005.44 1005.24 1005.00 1004.80 1004.44 1003.88 1003.28 1002.48 1001.80 1001.16 1000.56 999.96 999.56 999.24 998.76 998.20 997.64 997.08
Wind_Speed
5 5 5 3 3 2 1 1 1 2 3 2 1 1 1 1 2 2 2 4 3 3 5 4 1 5 4 4 5 5 5 5 5 4 5 5 5 7 10 11 14 16 16 15 15 14 14 14 13 13 13 13 12 13 13 12 11 12 12 13 13 13 14 12 13 13 13 13 14 14 15 15 15 15
3 2 0 2 2 2 2 4 5 3 4 4 4 4 4 4 4 3 3 3 2 4 2 3 2 0 1 2 3 4 5 8 8 4 4 4 4 8 8 7 11 13 14 15 15 15 15 15 14 14 14 14 13 13 14 13 12 13 13 14 14 14 14 13 14 14 14 14 14 14 15 16 16 16
2 2 1 1 1 1 2 2 1 1 2 2 4 4 4 5 5 4 2 3 3 2 2 2 2 3 4 5 4 3 3 4 5 4 4 5 7 11 9 10 10 12 14 15 16 16 17 16 16 15 14 14 14 13 13 13 14 14 14 14 15 15 14 14 14 15 15 15 15 14 15 16 16 16
5 6 4 3 3 2 1 2 2 1 1 2 4 3 4 2 2 2 2 3 5 2 3 3 3 4 3 4 5 4 3 4 7 4 4 5 9 8 7 11 13 14 15 16 17 17 17 17 17 16 15 14 14 13 14 16 16 16 15 15 15 15 15 15 15 15 15 15 15 15 15 16 16 17
4 4 5 4 4 4 4 4 3 2 2 3 5 5 4 4 4 4 3 3 5 4 3 3 3 3 3 3 3 4 3 3 3 4 4 5 6 6 6 6 10 12 14 17 17 17 17 17 17 16 16 16 15 15 16 19 18 17 17 16 16 16 16 16 16 15 16 16 16 16 16 17 16 16
5 3 4 4 3 3 3 4 3 3 4 4 5 3 4 4 3 3 2 3 3 6 4 4 2 4 3 5 2 3 3 4 2 3 3 3 5 5 5 6 6 12 12 13 15 16 16 17 17 18 18 18 19 19 20 20 19 18 17 17 17 17 16 17 17 14 15 15 16 17 17 17 17 17
6 6 5 6 5 4 4 5 4 4 3 2 1 2 1 1 1 2 2 2 3 4 5 4 5 4 3 4 5 4 3 4 4 4 4 5 4 5 6 6 5 8 10 11 13 14 15 15 16 16 17 18 19 20 20 20 20 19 18 18 18 18 17 17 18 17 17 16 15 17 17 17 17 17
7 7 7 6 6 5 5 4 4 4 3 3 2 2 2 3 3 2 2 3 3 3 5 4 4 3 5 5 5 4 4 5 5 5 4 5 6 5 5 6 6 8 12 12 12 13 13 14 16 17 17 18 18 19 20 20 20 19 19 19 20 19 18 18 18 19 19 18 18 18 17 17 17 18
7 7 7 7 6 4 3 2 3 4 4 4 4 3 3 3 3 3 3 3 3 4 5 5 4 4 4 5 5 4 5 5 5 4 5 4 5 6 5 5 6 10 15 16 17 16 16 17 17 18 17 18 19 20 20 20 20 20 21 21 20 19 19 19 19 19 19 19 19 19 19 17 16 17
7 7 8 7 6 5 6 5 4 3 4 3 3 4 4 3 3 3 3 3 3 4 5 5 5 3 5 4 4 4 5 6 5 5 5 5 5 5 5 6 6 5 5 4 6 10 13 17 20 19 18 19 19 19 19 20 21 21 21 22 21 19 19 20 20 20 20 20 20 20 20 20 19 19
7 7 6 6 6 5 5 4 4 4 3 3 4 4 3 1 0 1 3 4 5 5 5 5 5 5 4 4 6 5 5 6 6 6 6 5 4 4 5 5 4 5 7 8 11 11 12 13 11 13 18 19 19 19 19 19 20 21 21 21 21 20 20 20 20 21 21 21 21 21 20 20 20 21
9 8 8 9 7 7 6 6 5 5 5 5 5 4 2 2 3 4 5 5 4 5 5 5 5 4 5 4 4 4 4 5 5 4 4 5 6 6 3 4 5 4 5 7 8 9 11 11 14 16 16 15 16 18 18 20 20 21 21 21 21 21 21 21 21 21 21 21 20 20 21 21 21 22
9 8 9 9 9 10 12 13 10 8 7 5 5 3 3 2 2 3 4 5 6 5 5 6 5 5 5 4 5 5 5 5 6 4 5 5 5 4 4 4 4 6 8 8 8 7 6 6 6 6 6 7 11 13 16 14 18 20 20 20 21 20 19 18 18 19 20 21 21 21 22 23 24 24
9 9 9 8 11 6 10 13 14 11 8 5 3 3 2 2 3 3 5 6 6 5 6 6 5 6 6 5 4 5 6 6 6 6 4 5 5 5 6 5 4 4 6 8 8 7 5 7 6 5 6 6 8 7 8 7 9 10 13 16 17 18 19 19 20 20 20 21 22 22 23 24 24 24
9 9 8 7 9 9 8 7 9 9 7 5 4 5 7 6 4 4 5 6 5 5 5 5 5 7 7 5 4 5 6 4 4 5 5 6 6 5 6 7 4 3 5 6 7 7 4 5 8 7 8 9 9 8 9 13 15 16 16 16 17 18 19 19 20 20 20 21 22 23 23 23 24 24
7 7 7 7 5 7 8 7 7 8 9 9 8 7 7 8 9 8 7 6 6 6 6 6 7 7 6 5 4 5 4 3 5 5 5 6 6 6 6 6 7 3 5 8 9 12 7 8 9 9 8 9 8 9 12 15 16 18 19 20 20 20 19 19 19 19 20 20 21 23 24 24 24 24
8 6 7 5 5 5 10 7 5 5 6 6 8 8 9 9 9 10 11 11 9 5 6 7 7 7 5 4 3 3 3 3 6 4 5 5 6 7 8 8 7 6 5 10 11 12 8 6 8 10 9 9 8 10 14 19 19 20 20 18 16 17 17 17 18 19 20 21 22 22 23 24 24 24
8 8 6 6 6 6 6 6 7 6 5 4 5 5 5 5 7 9 11 12 14 12 9 8 8 7 5 7 5 4 5 5 4 3 5 5 7 8 9 8 8 8 6 9 10 12 9 7 9 10 9 9 10 10 12 15 15 12 11 12 13 15 16 18 20 22 23 23 23 22 22 22 23 23
9 9 8 7 7 7 7 6 6 5 5 5 4 5 5 5 5 6 7 7 6 7 7 9 10 9 8 8 8 4 1 2 3 4 6 7 8 9 9 8 7 8 8 10 8 12 8 4 6 8 7 5 5 4 8 11 12 13 14 15 16 18 21 23 24 24 23 22 21 20 21 23 25 26
5 8 7 7 7 6 6 7 10 8 5 5 5 7 6 6 6 7 7 9 9 6 5 6 8 8 6 3 2 2 4 4 6 6 6 6 7 7 7 8 7 7 4 5 7 10 9 3 6 8 8 8 8 6 6 10 14 15 17 18 19 21 22 23 23 22 20 20 22 24 25 26 27 28
5 9 8 8 6 5 3 5 11 10 7 5 6 7 7 6 6 5 4 7 10 10 11 10 9 10 10 5 4 6 10 9 8 6 5 8 8 7 8 8 7 6 6 6 8 9 10 5 6 8 6 6 8 9 9 9 13 16 15 15 15 16 18 20 20 21 22 24 26 27 28 28 28 30
6 9 15 9 7 8 7 9 12 11 9 6 6 6 7 6 6 5 4 5 3 6 7 7 9 8 7 7 10 11 13 16 11 6 9 11 8 8 7 9 8 8 7 9 8 7 6 5 4 8 7 8 8 10 9 9 9 12 12 15 18 19 20 21 22 21 22 25 27 28 29 28 28 22
5 3 6 11 7 5 2 9 12 9 7 5 5 5 4 4 4 3 2 2 2 2 2 2 3 4 7 8 8 10 15 18 16 10 11 9 7 8 9 9 9 9 6 4 4 7 6 8 6 7 10 10 7 7 8 9 8 9 9 9 11 16 20 21 21 22 24 26 27 28 30 29 27 17
3 1 3 6 9 5 11 10 8 9 8 5 4 2 3 3 4 2 2 3 3 3 3 3 4 5 6 7 7 8 10 11 10 12 9 6 6 8 9 9 7 7 6 4 8 8 7 7 9 6 8 11 12 7 7 9 9 9 9 11 11 14 18 19 18 21 23 24 26 27 28 27 27 16
4 2 4 5 9 15 11 8 9 8 7 1 1 1 2 1 1 2 3 4 6 4 4 5 5 6 6 5 5 6 5 5 3 4 2 3 4 4 5 7 8 9 10 9 9 6 8 8 11 9 9 8 11 12 9 9 11 11 10 10 11 12 12 13 12 14 17 23 22 22 24 26 28 21
3 2 2 7 11 13 12 10 9 9 7 3 2 2 6 3 2 2 3 4 4 4 4 4 4 5 5 4 5 6 6 6 4 5 5 6 6 7 7 7 9 10 11 9 11 8 8 9 9 10 10 9 11 10 13 12 11 10 9 9 10 11 12 13 13 13 13 13 13 16 19 24 22 26
7 9 11 9 9 12 12 11 9 8 7 4 3 8 5 4 3 4 4 4 4 3 4 5 6 5 6 5 4 4 4 5 4 6 6 6 7 7 8 8 8 10 10 9 9 9 8 10 9 10 11 9 11 12 10 12 13 12 11 11 11 11 11 11 13 13 13 13 14 20 21 22 22 23
8 7 6 5 11 11 11 10 9 8 6 3 7 6 6 6 5 4 3 4 5 5 5 5 6 5 3 4 4 3 4 4 4 5 7 7 7 7 7 8 10 10 10 9 9 9 9 10 10 9 9 10 11 13 13 10 11 11 15 14 11 11 11 11 13 13 12 12 12 13 12 13 12 12
2 5 11 13 11 11 10 10 7 6 7 7 9 8 8 8 3 4 4 4 3 3 4 5 2 3 3 3 4 2 3 5 7 6 6 7 7 7 8 8 7 6 7 8 9 10 10 10 11 8 8 8 10 11 11 12 11 12 13 15 14 11 12 11 10 12 13 12 12 12 12 12 12 12
11 12 13 13 12 10 9 6 5 6 7 10 12 11 8 4 4 4 4 5 5 6 4 3 3 3 4 5 1 2 4 5 6 6 6 6 6 5 5 7 8 6 8 10 11 11 10 10 8 6 7 8 7 9 10 10 11 12 13 12 14 13 9 9 12 12 12 12 12 13 13 12 13 13
7 9 8 7 8 6 12 10 5 5 8 6 4 4 5 5 6 6 5 4 5 5 5 4 4 4 3 2 2 3 4 6 5 4 5 6 6 5 6 7 9 9 8 9 10 10 9 8 6 5 7 7 8 8 9 8 11 13 13 12 12 14 14 12 11 12 12 13 13 14 13 12 13 14
6 5 5 6 5 4 4 3 4 5 5 6 6 6 6 7 8 7 6 6 5 5 5 5 4 2 1 1 2 3 4 5 5 4 5 5 6 6 6 7 8 9 9 8 7 6 7 7 6 5 5 6 9 10 8 8 10 12 13 12 13 13 13 13 13 13 13 13 13 14 13 13 13 14
6 5 5 5 5 5 6 6 7 7 7 7 7 7 6 5 3 5 6 5 5 5 5 5 5 2 1 2 3 4 5 5 5 5 5 4 6 7 6 8 9 8 9 8 8 7 6 6 6 6 6 7 8 9 9 10 11 11 11 12 13 14 13 12 12 13 14 13 14 14 15 14 13 13
6 6 6 6 6 7 8 9 6 5 5 6 7 6 7 5 4 3 3 4 1 2 3 4 3 3 3 3 4 3 5 6 6 5 5 6 7 6 6 7 7 7 7 8 8 9 8 8 7 6 7 7 6 6 6 9 12 10 9 11 12 13 13 12 13 14 13 12 14 15 15 15 14 13
7 6 7 8 9 8 6 4 4 2 2 2 2 2 1 3 4 3 1 5 2 3 3 2 2 2 3 4 3 4 5 5 5 5 5 5 6 6 7 7 7 7 7 8 9 8 8 9 7 7 8 8 8 6 8 11 9 9 10 10 10 12 14 13 14 14 14 13 11 13 14 14 15 13
7 4 3 3 3 3 5 5 3 2 3 1 2 0 1 1 1 2 5 2 3 1 1 1 2 3 4 4 4 5 5 3 5 5 5 5 6 6 6 6 6 7 7 7 8 9 10 10 6 6 9 9 10 12 11 8 9 7 10 11 11 12 13 14 14 13 12 12 11 11 12 14 16 16
4 3 4 4 3 4 5 3 3 3 4 2 2 3 3 3 2 3 4 0 2 1 2 1 2 3 4 4 3 3 4 4 5 6 6 5 6 6 6 5 7 7 7 7 8 10 10 8 4 5 8 10 11 13 13 9 10 8 6 10 12 11 14 14 14 14 11 11 12 10 11 13 15 16
4 3 3 3 4 4 3 3 5 5 5 4 4 4 4 3 3 3 4 2 1 2 3 4 4 4 4 4 5 5 5 5 5 5 5 6 6 5 5 7 7 7 7 9 8 9 8 6 5 6 7 8 10 12 13 12 10 10 10 8 11 13 13 14 13 11 14 10 10 11 12 13 14 14
2 2 3 3 3 2 4 5 4 3 3 3 2 1 2 2 3 3 4 4 4 6 6 4 3 3 5 5 5 5 5 5 5 5 5 5 5 5 7 7 7 7 8 8 7 7 8 6 6 7 7 8 8 10 10 11 12 12 12 13 8 10 12 13 14 14 13 14 13 11 10 11 15 18
3 3 2 4 3 4 4 4 3 3 3 2 1 2 2 2 4 4 2 5 5 4 4 5 5 5 5 6 5 4 4 5 5 5 6 5 5 6 7 6 7 8 7 8 9 8 7 7 7 8 8 8 7 8 10 10 8 7 9 10 8 6 11 11 13 14 13 12 12 13 15 15 15 13
4 4 3 1 3 3 3 3 2 1 1 1 2 1 4 3 2 2 2 1 2 4 3 4 4 4 5 6 4 4 5 4 5 5 5 5 6 7 9 8 7 6 7 8 8 8 8 7 10 13 10 5 4 8 7 7 9 10 12 12 13 14 16 15 12 12 13 13 11 12 13 14 14 13
4 3 3 2 2 1 1 1 1 2 2 2 4 3 1 2 3 4 1 0 2 2 3 4 4 6 5 3 4 4 4 5 5 5 5 6 7 7 8 6 7 7 7 8 9 8 8 9 8 6 5 6 5 6 8 8 10 11 12 12 12 14 16 17 18 16 13 10 10 11 10 11 10 9
3 2 2 3 3 1 0 1 1 1 1 2 2 2 3 5 1 4 2 3 3 4 5 5 4 2 4 4 4 4 4 5 5 6 7 7 6 7 7 7 7 7 7 7 7 7 8 9 6 6 5 4 4 5 8 8 8 10 12 12 13 13 13 14 16 16 16 13 12 13 11 10 10 11
5 3 3 4 3 3 2 1 1 1 0 0 2 3 2 4 5 5 3 4 3 3 2 2 2 2 3 4 4 3 4 5 6 7 6 6 6 6 7 7 7 7 7 7 7 8 8 8 6 6 6 6 6 7 8 8 8 9 10 11 12 13 14 13 12 13 12 12 17 20 21 18 12 13
3 2 2 4 3 3 4 4 2 1 0 2 0 7 1 4 1 3 3 3 4 3 3 2 2 2 2 3 4 4 5 6 7 5 5 6 6 6 6 8 7 7 7 6 8 9 8 9 7 5 5 5 5 6 6 7 8 9 10 12 14 13 12 12 14 14 13 12 15 21 22 21 20 18
Wind_Direction
218 188 203 199 193 168 125 191 217 206 128 120 113 139 156 129 229 278 302 313 309 319 315 322 124 154 184 196 206 191 201 207 221 215 227 246 257 266 268 242 230 233 234 235 237 239 240 239 240 239 244 246 247 254 260 262 264 271 276 280 282 284 287 285 284 283 281 279 277 278 279 279 279 277
253 242 217 178 148 159 184 204 223 188 153 170 179 182 176 169 208 221 243 268 253 273 300 312 327 23 175 208 217 185 188 211 220 227 241 248 255 264 267 244 237 234 237 238 240 243 244 243 242 243 245 246 245 246 252 258 258 257 262 268 273 277 281 282 282 280 279 276 275 274 275 278 279 280
257 296 251 150 192 117 271 287 317 214 138 178 193 197 172 180 197 225 240 262 226 259 298 288 298 321 302 276 257 233 201 197 208 226 243 251 260 266 267 249 232 232 232 235 238 240 244 245 246 246 246 245 245 241 242 245 248 253 254 259 265 270 271 274 276 278 278 276 274 271 270 272 274 275
199 199 204 216 218 213 205 236 226 137 202 216 224 209 167 165 216 215 235 244 263 202 266 283 284 276 297 314 297 261 237 212 210 215 236 248 252 257 254 258 251 239 233 231 233 237 241 245 248 249 250 250 248 244 241 243 246 250 253 257 259 265 268 269 272 272 272 273 271 269 268 268 270 273
206 190 189 197 198 193 201 200 195 226 237 226 215 203 172 188 201 199 206 248 277 274 222 250 269 276 280 276 261 286 270 239 218 220 232 243 246 244 245 253 258 252 240 236 236 238 240 244 248 249 248 246 243 238 239 245 245 246 250 254 256 258 263 265 267 267 267 267 267 266 266 266 267 268
196 212 205 204 207 193 215 215 214 202 208 230 240 180 174 183 200 178 208 224 249 282 302 287 284 286 275 278 280 287 295 285 256 252 247 253 264 267 268 262 257 258 253 236 237 238 240 243 243 243 243 243 244 243 245 248 250 247 246 248 250 252 254 260 260 258 257 258 261 262 263 263 262 263
185 198 208 210 202 194 203 210 210 206 210 241 319 342 306 256 211 226 226 248 263 277 282 287 292 293 299 289 289 284 277 280 261 245 238 243 246 250 255 260 262 263 262 245 232 232 234 237 241 242 242 242 244 245 246 247 249 250 248 247 250 252 252 253 256 256 258 257 255 257 259 260 260 261
189 198 204 206 206 195 202 199 194 190 190 194 211 235 227 216 222 217 222 217 232 246 275 276 277 285 291 282 278 277 272 270 267 246 240 231 237 244 249 256 264 268 269 269 256 246 245 244 244 244 243 243 242 245 247 247 246 248 249 248 249 250 250 250 251 254 256 257 258 257 256 256 259 262
199 204 207 203 199 194 200 200 210 189 198 201 202 213 222 214 215 224 217 233 233 247 263 275 268 273 273 275 271 264 278 275 267 257 247 240 239 240 239 251 257 261 256 252 253 249 245 244 245 245 244 242 243 245 247 247 247 247 249 251 250 248 247 249 251 253 254 255 257 259 259 256 252 256
201 201 204 203 193 193 193 194 196 196 206 200 201 215 208 208 219 225 230 229 237 237 244 255 273 253 273 278 275 269 257 264 274 276 267 256 246 242 245 243 252 261 272 277 254 249 251 251 248 246 243 243 245 247 248 247 247 248 250 252 252 248 247 249 252 253 253 252 253 255 258 258 256 254
206 208 209 208 203 200 198 205 204 185 194 201 222 216 214 193 93 280 281 260 251 250 262 262 257 268 258 263 282 270 260 258 255 269 279 271 257 242 237 256 260 273 273 267 268 271 271 269 263 240 235 240 243 245 247 247 247 247 248 250 251 250 248 249 251 252 252 252 252 253 255 258 259 257
209 203 208 213 203 202 200 200 199 191 197 201 214 205 163 161 217 236 238 247 251 256 262 260 271 262 272 268 260 275 272 273 272 257 268 282 283 277 262 260 272 266 270 271 270 269 265 256 252 257 260 258 254 252 252 250 250 249 247 247 248 249 248 247 248 251 252 253 253 255 256 257 257 257
212 206 206 209 208 196 193 191 197 194 193 201 204 186 176 181 213 260 269 270 264 257 256 270 266 271 271 267 281 287 286 283 283 277 269 271 274 275 283 271 265 276 275 268 265 262 260 266 268 274 268 257 255 253 250 251 251 250 249 246 247 252 255 255 254 254 254 254 252 249 250 252 254 255
210 215 216 212 216 182 175 190 194 197 166 174 178 167 174 199 219 235 257 260 262 265 265 267 273 278 278 282 283 291 291 297 296 297 306 300 294 293 279 270 250 262 274 282 278 271 270 278 281 275 278 277 274 285 286 278 274 264 247 241 246 251 252 252 251 249 249 249 250 249 247 246 248 249
207 208 210 214 199 167 148 145 139 134 144 162 181 205 216 217 221 242 243 252 254 257 261 267 274 269 270 272 280 281 292 299 317 315 306 295 292 288 298 294 286 237 278 288 293 284 282 298 292 287 282 277 275 277 273 273 270 266 269 271 265 257 251 250 252 251 249 248 249 250 250 249 248 247
214 213 209 209 175 171 163 166 153 157 176 186 198 216 238 239 229 222 227 243 250 249 255 253 254 262 263 274 276 287 304 307 297 292 296 293 299 302 298 295 292 318 327 312 307 293 289 278 273 274 266 266 267 264 262 263 263 264 264 261 259 261 264 264 261 257 254 251 250 251 252 252 252 251
202 202 217 209 153 173 162 159 162 169 180 188 209 230 239 245 240 234 229 226 229 242 247 257 258 252 266 269 271 280 280 280 283 289 293 301 300 296 291 286 295 306 326 299 283 281 281 270 268 267 263 262 261 259 255 252 252 254 256 261 265 266 265 263 264 266 263 257 252 251 252 253 253 252
204 195 173 159 168 156 162 176 176 179 181 193 212 207 203 222 239 235 229 226 225 225 233 244 256 255 261 267 261 260 258 260 270 291 284 295 290 282 276 281 282 282 274 270 278 275 274 262 263 265 264 261 259 253 249 254 262 268 265 259 261 265 268 269 269 267 266 265 261 255 250 249 250 251
203 178 173 173 168 167 172 180 180 181 194 189 204 208 216 223 234 243 245 229 212 215 216 225 236 250 248 255 258 246 235 277 275 259 269 268 266 266 268 268 263 269 251 252 256 273 274 252 268 272 278 275 277 279 284 283 279 277 279 282 281 279 277 274 272 269 265 261 258 256 255 255 255 255
166 169 169 171 168 180 171 183 193 199 184 189 205 216 219 229 234 242 237 237 252 253 211 206 220 232 253 232 220 277 294 274 266 263 257 253 256 269 277 273 270 262 261 260 273 279 280 266 280 288 287 288 285 286 285 286 281 276 274 275 274 272 273 272 270 265 259 258 260 262 262 262 263 263
178 176 179 174 167 152 153 183 198 195 182 201 212 220 223 226 240 249 248 238 237 243 253 262 271 274 273 272 284 268 255 249 250 262 264 257 256 260 274 275 279 285 289 274 268 276 289 293 284 290 294 300 298 294 290 284 276 272 271 271 273 273 270 266 263 264 268 271 270 269 268 266 265 263
202 182 180 166 148 158 185 191 189 197 193 210 224 230 236 236 239 244 256 267 251 227 241 254 256 266 280 274 258 250 247 248 243 206 237 249 259 263 264 284 286 287 286 277 273 284 287 321 332 316 308 300 285 284 280 279 277 278 280 275 271 271 270 270 271 271 271 271 270 269 267 266 263 263
206 158 175 165 129 98 124 199 205 192 190 216 231 235 232 238 249 268 306 305 312 348 328 296 287 269 255 254 253 253 251 248 244 227 239 253 256 269 272 275 285 283 264 270 8 329 322 329 316 317 310 296 287 281 282 281 281 279 276 275 278 276 276 274 273 272 272 270 269 268 266 264 261 258
315 195 97 71 93 197 219 197 182 186 196 219 228 229 225 227 240 28 348 318 317 303 286 281 285 288 286 274 264 260 252 240 233 236 240 245 250 258 263 269 278 292 309 326 354 322 313 311 302 306 291 297 299 292 285 280 280 284 288 287 280 281 281 283 279 273 270 268 267 266 265 262 256 254
192 180 173 160 181 213 206 190 182 182 188 177 264 173 243 263 70 316 295 299 307 301 292 280 270 264 256 253 258 268 271 282 320 7 320 234 246 278 318 325 319 303 298 303 328 313 303 300 291 292 283 276 283 291 287 288 286 284 284 278 284 288 288 287 285 284 278 273 269 268 268 260 253 244
134 206 198 230 210 194 187 180 166 158 156 151 206 99 106 114 20 335 301 293 270 260 265 285 290 283 278 276 280 282 295 320 344 340 335 342 349 336 327 316 307 298 291 297 298 284 287 284 284 288 285 283 282 284 296 292 286 286 281 280 283 286 286 289 288 287 286 289 289 287 284 278 258 245
172 202 221 213 162 164 164 155 153 148 142 157 144 128 139 157 209 247 255 257 267 275 280 271 266 266 260 264 279 299 330 338 356 1 344 333 320 306 294 281 271 271 275 282 281 279 272 275 274 273 278 278 283 286 282 293 299 302 296 292 295 293 291 292 292 293 291 289 287 284 282 275 267 250
212 210 204 136 143 141 139 138 144 148 174 157 135 151 174 196 213 234 244 236 233 241 245 255 254 254 283 300 319 333 352 359 354 330 313 300 290 279 274 271 271 270 275 278 281 273 266 267 271 266 271 278 282 288 293 286 282 295 300 303 301 301 300 298 294 291 287 284 285 285 285 287 277 266
206 87 105 115 123 129 128 128 132 167 209 185 177 181 197 207 229 212 224 241 255 261 257 254 294 317 311 324 305 331 360 335 320 304 286 278 272 268 264 266 270 279 289 292 285 277 269 266 267 273 276 276 290 289 286 287 294 295 299 307 308 306 305 297 294 294 293 287 284 284 285 288 286 277
88 99 107 111 116 120 132 143 188 200 194 205 204 208 200 213 227 229 224 229 219 232 236 238 239 266 275 265 272 355 324 302 282 275 276 279 281 283 293 298 290 283 280 277 273 269 265 263 259 266 276 277 274 280 282 291 295 295 300 300 297 299 285 298 300 295 291 291 290 291 288 286 281 281
99 120 127 143 157 167 186 203 202 191 173 178 193 201 201 218 223 226 224 218 232 236 230 236 248 232 260 338 10 326 299 281 276 271 282 287 288 295 291 291 290 291 279 270 269 268 271 273 268 269 273 278 280 276 282 286 290 293 299 301 308 306 309 304 298 297 298 295 298 292 290 285 281 277
129 130 129 143 171 165 187 217 203 201 190 205 192 201 209 211 220 224 234 237 236 248 244 243 244 271 247 303 304 312 296 286 284 282 282 281 289 291 294 289 287 286 286 281 277 276 280 284 276 259 242 260 280 289 289 285 287 291 295 302 303 302 303 307 308 308 305 304 300 299 293 291 288 289
145 132 159 179 186 189 200 210 213 201 198 210 204 205 215 218 201 193 200 218 219 207 211 239 245 222 11 329 341 300 291 285 287 279 280 280 283 285 276 276 282 288 295 301 303 297 293 291 283 276 270 269 267 277 294 301 293 294 298 302 308 306 308 307 310 308 312 308 302 300 298 294 294 286
166 191 190 198 201 203 204 212 227 239 200 195 195 193 202 202 221 241 228 242 291 14 26 40 29 7 339 308 286 297 294 290 278 284 291 284 278 279 283 286 288 290 297 303 309 308 305 298 294 291 289 282 264 255 260 277 282 289 292 304 306 306 308 313 312 313 309 305 301 301 300 303 297 288
201 195 207 210 212 214 247 271 256 208 199 249 246 245 185 190 211 221 65 62 62 60 29 8 348 333 309 294 310 297 280 280 292 292 280 277 286 285 290 292 296 303 310 311 308 307 307 302 302 308 309 309 306 283 206 221 277 288 303 302 305 310 314 317 315 313 310 303 300 296 303 302 297 300
217 242 279 272 270 274 266 266 280 284 271 231 224 306 341 352 6 8 98 197 92 121 91 8 314 303 319 318 289 273 278 295 299 296 300 297 294 295 293 294 304 312 311 305 311 308 303 297 299 317 322 320 317 315 319 198 206 291 305 306 312 314 315 315 312 309 307 307 304 304 308 309 306 303
211 225 242 267 280 265 251 232 215 226 250 309 15 40 46 4 20 53 138 243 109 348 134 225 279 282 265 263 282 298 322 315 300 296 293 298 301 298 302 313 314 305 306 311 306 298 295 294 309 328 326 322 322 317 304 315 310 296 281 309 316 319 320 317 315 313 311 307 305 311 306 303 301 297
224 241 254 270 275 287 317 1 20 30 36 55 31 24 4 1 340 338 142 191 110 37 18 8 334 327 323 329 331 319 296 283 285 296 307 308 303 312 319 314 307 310 308 300 294 293 298 303 324 330 326 316 316 313 311 316 317 320 326 324 319 321 322 317 316 312 316 313 311 314 312 303 300 302
311 293 280 282 298 1 19 55 57 45 32 46 23 336 355 343 306 328 29 28 11 25 12 342 323 345 339 319 292 280 286 298 306 312 309 305 310 320 317 308 308 306 300 298 304 311 311 313 333 328 318 308 302 300 301 305 307 307 316 318 309 316 319 319 316 319 318 320 321 316 301 285 277 277
224 250 292 289 326 23 51 63 56 41 14 19 335 329 307 324 8 350 21 35 33 34 9 337 334 325 298 282 284 298 300 312 315 314 308 312 324 315 307 305 303 300 302 312 316 316 312 319 323 322 314 284 283 297 285 284 279 294 304 312 315 316 317 314 314 317 321 322 322 327 326 328 331 330
207 204 211 89 65 57 32 24 355 7 10 335 318 351 74 80 87 59 61 34 6 0 325 294 287 281 276 274 293 312 315 315 316 309 314 325 317 306 303 304 303 311 315 314 314 313 316 321 310 317 312 298 307 282 285 307 321 327 329 324 329 334 324 317 315 318 317 319 329 330 326 328 322 318
189 179 129 121 96 116 208 303 325 5 319 1 11 359 352 341 95 110 70 92 219 236 246 262 262 252 260 311 324 323 319 319 310 315 327 319 307 307 309 314 312 318 316 317 316 314 319 314 318 332 315 321 308 323 325 331 332 331 329 327 327 329 329 321 319 321 318 320 334 338 327 320 325 324
161 173 134 120 116 77 109 181 105 348 322 14 335 348 339 281 170 80 4 293 250 219 224 230 243 335 342 312 310 326 323 316 324 327 310 300 309 313 317 314 315 314 317 310 309 317 318 311 314 316 311 308 314 322 326 334 335 334 332 333 334 331 327 325 324 324 325 328 345 356 346 330 331 333
169 170 144 124 141 162 169 182 224 207 127 19 271 297 293 30 26 15 336 292 274 269 288 338 347 306 302 322 342 338 319 319 313 295 296 307 312 314 311 314 316 317 315 315 321 322 314 311 310 322 330 331 327 340 334 340 339 340 337 333 333 336 332 333 334 332 337 351 354 351 343 337 327 319
126 148 140 147 170 166 180 184 186 88 52 224 238 270 214 78 47 258 255 270 287 293 281 282 336 312 319 3 358 315 305 289 283 292 311 315 315 313 317 322 315 317 316 325 326 319 316 311 310 325 332 326 349 336 340 350 340 339 343 345 342 337 335 338 343 343 343 343 349 347 343 340 335 338